Regional Weather Roundup
Issued by NWS

Home | Current Version | Previous Version | Graphics & Text | Print | Product List | Glossary On
Versions: 1 2 3 4 5 6 7 8 9 10 11 12 13 14 15 16 17 18 19 20 21 22 23 24 25 26 27 28 29 30 31 32 33 34 35 36 37 38 39 40 41 42 43 44 45 46 47 48 49 50
692
ASUS43 KLSX 271357
RWRMO

WEATHER SUMMARY FOR MISSOURI
NATIONAL WEATHER SERVICE SPRINGFIELD MO
900 AM CDT TUE JUN 27 2017

NOTE: "FAIR" INDICATES FEW OR NO CLOUDS BELOW 12,000 FEET WITH NO
       SIGNIFICANT WEATHER AND/OR OBSTRUCTIONS TO VISIBILITY.
       CURRENT SKY AND/OR WEATHER CONDITIONS ARE NOT AVAILABLE FOR
       CHILLICOTHE AND FARMINGTON.

MOZ001>031-035>038-043-044-053-054-271500-
...NORTHERN AND WESTERN MISSOURI...

CITY           SKY/WX    TMP DP  RH WIND       PRES   REMARKS
KANSAS CTY INT MOSUNNY   66  60  81 SE16      30.12S
LEE`S SUMMIT   SUNNY     66  60  81 E10       30.13S
ST JOSEPH      SUNNY     66  60  81 SE8       30.11F
CHILLICOTHE      N/A     66  61  84 E5        30.15S

$$
MOZ066>068-077>081-088>096-101>105-271500-
...SOUTHWEST MISSOURI...

CITY           SKY/WX    TMP DP  RH WIND       PRES   REMARKS
SPRINGFIELD    SUNNY     66  61  84 SE13      30.13S
JOPLIN         SUNNY     70  66  87 SE5       30.11S
BRANSON        MOSUNNY   66  59  77 SE9       30.16R

$$
MOZ032>034-039>042-045>050-055>058-069>072-271500-
...CENTRAL MISSOURI...

CITY           SKY/WX    TMP DP  RH WIND       PRES   REMARKS
COLUMBIA       NOT AVBL
JEFFERSON CITY PTSUNNY   61  60  97 SE7       30.16S
ROLLA          SUNNY     65  59  81 E10       30.16R
SEDALIA        SUNNY     66  62  87 SE8       30.15S
WARRENSBURG    SUNNY     61  61 100 E7        30.14R

$$
MOZ051-052-059>065-271500-
...EAST CENTRAL MISSOURI...

CITY           SKY/WX    TMP DP  RH WIND       PRES   REMARKS
ST LOUIS INTL  SUNNY     69  57  65 E3        30.17S

$$
MOZ072>076-082>087-097>100-106>115-271500-
...SOUTH CENTRAL AND SOUTHEAST MISSOURI...

CITY           SKY/WX    TMP DP  RH WIND       PRES   REMARKS
CAPE GIRARDEAU SUNNY     69  57  65 E6        30.15F
POPLAR BLUFF   MOSUNNY   69  60  73 N8        30.15S
WEST PLAINS    SUNNY     67  60  78 E6        30.17R

$$



USA.gov is the U.S. government's official web portal to all federal, state and local government web resources and services.